RH
22 14 15 26 26 17 13 8 5 5 4 4 4 3 4 4 4 4 4 4 4 4 4 4 4 4 4 3 4 5 12 21 24 22 20 22 40 76 100 103 102 102 101 101 101 101 101 103 105 105 102 102 104 102 96 88 82 85 92 96 93 87 82 79 74 70 70 70 74 76 74 74 73 70 70 66 61 61 60 60 68 75 80 86 92 94 96
23 15 16 28 28 19 15 10 6 5 5 5 5 4 4 4 5 5 4 5 4 4 4 4 4 4 4 5 6 10 20 26 25 24 22 30 60 94 104 101 101 102 101 101 101 100 101 102 104 104 101 100 102 101 99 95 86 83 91 100 101 95 87 82 78 75 71 64 61 60 57 58 64 70 76 79 78 75 70 66 65 62 63 68 70 69 73
25 16 16 28 29 22 17 12 7 6 5 5 5 5 4 4 5 5 5 5 5 4 4 4 4 4 4 7 11 20 30 30 28 27 28 50 86 105 103 100 101 102 102 102 100 100 101 102 102 101 100 100 100 100 101 100 95 90 93 102 104 99 94 90 85 82 80 76 72 68 67 73 82 87 87 87 85 84 82 79 73 70 71 72 70 67 68
27 18 17 27 31 25 20 14 9 7 6 5 5 5 5 4 5 6 6 5 5 4 4 4 4 5 7 12 21 31 35 32 31 30 39 72 103 106 100 101 101 100 102 102 100 100 101 102 102 101 100 100 100 100 101 103 103 95 88 93 99 97 93 91 90 91 91 88 85 82 81 85 94 101 102 100 97 95 93 87 84 88 91 88 86 86 83
30 20 17 28 32 28 23 17 12 8 6 6 5 6 6 5 5 6 6 6 5 5 5 5 6 9 14 24 34 39 37 34 33 38 62 93 106 102 100 101 101 100 101 101 100 101 101 101 102 101 100 100 100 101 101 102 107 101 86 85 95 100 99 96 94 94 93 91 88 84 79 76 78 85 91 95 97 95 90 87 93 103 104 100 101 103 98
33 22 17 28 34 30 26 20 14 9 7 6 6 6 6 5 5 5 6 6 5 6 8 9 13 18 27 36 43 43 42 39 39 54 85 105 103 100 101 101 101 101 100 100 100 100 100 100 101 101 100 100 100 102 102 101 105 101 86 77 82 90 98 102 104 103 99 97 95 92 88 84 79 76 74 74 77 77 76 82 92 98 100 104 107 107 104
35 25 18 29 36 33 29 24 18 12 8 7 6 6 6 6 5 5 7 7 6 8 12 17 24 31 39 46 47 48 49 45 49 73 101 107 101 101 101 100 101 101 100 101 101 100 101 100 100 100 100 101 101 101 102 101 102 98 87 76 73 76 81 87 96 103 105 104 101 98 96 95 92 91 87 80 76 73 72 76 80 83 88 98 102 102 104
36 28 19 28 39 37 32 28 23 15 10 8 7 7 6 6 5 5 7 9 9 12 18 26 35 43 50 53 52 53 58 59 69 92 106 104 101 101 100 100 101 100 100 101 100 100 101 101 101 100 100 101 101 101 102 101 101 99 90 80 77 78 76 74 77 83 93 101 104 102 99 97 96 97 98 95 91 87 83 82 80 79 82 89 95 101 104
38 31 19 26 40 41 37 34 29 20 14 10 8 8 7 6 7 7 9 13 16 20 26 32 43 53 60 64 60 56 59 69 89 105 106 101 102 101 100 101 101 101 102 101 101 101 101 101 100 100 100 101 100 101 102 101 100 102 99 92 90 90 88 85 79 73 74 86 99 104 103 99 96 94 96 98 98 96 95 94 93 90 89 89 90 96 99
40 35 22 24 39 47 42 39 36 26 18 14 11 10 9 7 10 12 13 18 24 30 37 42 47 54 61 66 67 61 56 65 89 104 103 100 102 101 100 102 101 101 102 101 101 102 102 101 100 100 100 100 99 99 101 101 100 101 103 104 103 103 101 99 94 85 76 74 84 97 101 99 98 99 100 100 99 100 100 100 101 100 97 96 95 96 97
41 39 27 22 35 50 48 41 40 33 23 19 15 13 14 10 12 18 22 27 34 41 51 56 57 57 58 58 62 65 63 69 87 100 100 99 100 100 101 101 100 101 101 101 101 101 101 101 100 101 100 100 100 100 100 101 100 100 102 105 106 107 106 103 99 96 88 76 74 80 86 94 102 105 107 106 103 104 105 104 105 105 103 104 104 103 102
43 41 32 23 29 48 53 44 42 40 31 25 21 18 20 19 18 24 31 38 47 55 62 68 69 68 65 61 60 65 75 89 99 102 100 100 100 100 100 100 101 101 100 100 101 101 101 101 100 100 100 100 101 101 100 100 100 99 100 102 103 103 102 99 95 93 90 82 74 68 73 93 109 109 107 109 106 106 107 106 107 108 107 108 106 105 105
45 42 35 27 24 41 57 50 44 48 41 32 28 25 26 29 29 32 40 47 57 65 71 75 77 76 75 73 70 70 85 103 108 103 101 101 101 101 100 100 102 101 98 98 101 102 102 102 101 100 100 101 101 102 101 101 101 101 100 100 102 102 101 100 97 95 91 85 77 67 69 90 108 109 107 107 106 106 107 106 106 107 108 106 103 104 106
51 49 37 30 24 33 56 58 49 54 54 42 36 34 31 35 40 44 50 57 64 71 77 79 82 82 81 84 84 83 94 107 106 101 101 101 100 101 101 100 101 101 100 100 100 101 102 102 101 101 100 102 103 104 102 100 101 103 102 101 101 102 102 102 102 101 99 96 90 79 74 80 93 105 109 105 103 105 106 105 103 101 105 105 102 103 104
53 58 41 32 27 26 47 63 56 56 64 56 45 43 40 40 47 53 60 67 71 76 81 82 84 86 87 90 93 96 104 108 103 100 101 100 100 101 100 100 100 100 101 101 101 101 101 100 101 102 101 101 103 104 102 100 101 101 100 101 101 100 101 102 103 103 104 103 98 90 85 82 85 97 104 102 101 101 98 98 96 92 97 102 103 103 103
44 59 48 34 31 24 34 60 64 58 66 69 59 52 49 48 54 60 67 74 77 80 84 86 88 89 90 93 97 102 109 109 103 101 102 101 101 101 100 100 101 100 100 101 101 101 101 101 102 101 101 99 99 100 101 101 101 102 101 100 99 97 97 99 102 103 103 102 97 91 92 94 90 92 97 100 99 95 90 89 88 88 93 101 102 101 100
37 56 56 38 33 28 25 47 67 63 62 72 75 67 59 56 60 65 72 80 85 86 87 89 92 96 98 99 100 104 108 107 103 101 101 101 101 101 101 101 101 100 101 101 101 101 101 101 102 102 103 102 101 102 104 104 104 105 105 101 96 94 94 96 101 104 104 101 96 92 95 98 93 90 95 101 101 96 91 87 87 90 94 99 101 100 96
36 51 65 46 34 34 24 31 59 69 62 67 81 84 75 65 65 69 73 81 90 94 93 92 94 99 105 108 108 108 107 105 102 101 100 100 100 101 101 101 100 100 101 101 101 102 101 101 102 102 102 102 103 104 105 106 106 106 104 99 94 91 93 97 102 106 104 99 95 92 96 99 93 88 95 104 105 101 98 97 99 101 100 98 98 98 95
40 42 65 58 39 37 30 24 42 66 68 64 72 88 92 84 78 77 77 81 90 98 99 99 100 102 107 111 110 107 105 103 102 102 101 100 100 100 100 100 100 100 101 100 100 101 101 101 101 98 97 98 99 100 101 102 104 104 103 100 95 91 91 95 100 103 101 97 92 89 91 93 90 88 96 105 104 101 103 104 106 107 105 102 100 98 96
50 36 57 66 48 39 37 27 29 51 70 69 65 74 90 97 95 92 89 86 90 97 100 101 103 103 106 110 111 109 106 104 102 102 101 100 100 100 100 100 100 100 100 100 101 100 100 100 99 96 96 96 95 96 97 98 98 100 103 102 97 91 89 89 92 93 93 90 87 86 89 91 92 95 102 106 104 102 102 102 102 104 106 107 105 99 94
61 38 49 67 59 44 41 35 27 36 57 73 72 67 74 90 102 105 104 99 97 100 103 104 105 104 103 105 109 111 111 109 107 105 104 102 101 101 101 99 99 100 100 100 101 100 99 100 99 98 98 98 99 100 101 102 102 103 103 100 95 92 91 91 91 90 88 86 85 86 88 89 91 96 102 105 104 103 103 102 102 100 98 97 94 91 90
70 45 46 66 66 51 45 42 34 31 41 61 77 76 70 76 88 100 109 111 108 106 105 106 108 109 108 107 107 107 107 107 108 108 109 108 106 104 104 101 99 99 100 100 101 101 101 101 102 103 103 103 104 104 103 101 101 98 94 91 90 89 89 90 89 86 84 84 83 83 83 83 85 92 97 99 100 102 103 101 98 92 87 85 88 92 96
77 52 45 65 73 58 47 46 43 38 36 44 64 79 80 76 78 85 95 104 108 109 109 109 107 105 106 109 109 109 108 106 106 107 108 108 107 105 103 100 96 94 93 94 95 96 97 97 98 98 97 95 94 93 91 90 89 86 84 85 85 84 83 82 82 80 79 78 78 80 85 89 91 97 100 98 94 92 90 88 89 91 94 95 98 101 102
84 60 46 63 81 70 51 45 46 46 42 39 46 64 78 82 80 80 83 88 94 99 104 107 108 106 106 108 109 111 113 112 110 110 109 108 108 107 104 102 99 96 93 90 89 87 87 87 85 85 84 82 81 80 78 77 77 76 77 79 79 78 77 76 75 75 76 78 79 81 88 91 91 94 98 97 91 88 89 92 95 100 105 106 107 107 106
90 70 48 58 86 87 64 47 45 47 47 45 43 50 65 78 83 84 85 85 85 88 90 91 94 97 99 102 104 107 110 111 111 111 110 109 108 108 108 107 106 105 103 100 98 97 96 92 88 87 86 83 82 81 78 77 76 76 77 79 79 79 77 76 75 76 79 83 85 86 89 91 91 91 93 93 92 94 99 105 106 105 106 107 108 107 105
96 80 54 51 80 100 84 58 47 46 47 47 47 47 54 66 77 84 88 88 88 88 87 86 84 84 83 83 84 85 86 88 90 90 91 93 92 92 93 93 92 92 91 90 89 88 87 85 82 81 80 77 77 76 75 75 75 74 75 77 77 77 77 77 77 76 77 80 81 81 84 88 89 90 91 92 94 98 103 108 110 108 108 109 109 108 107
99 89 64 47 66 98 102 77 55 50 49 47 47 48 49 54 63 72 81 87 90 91 91 90 89 87 85 82 79 76 72 70 69 68 68 68 68 67 67 66 65 63 62 61 60 58 57 57 56 56 56 55 55 56 56 57 58 58 59 61 62 63 64 64 64 64 65 67 68 69 72 75 76 78 80 82 85 87 91 96 98 99 101 104 105 106 107
99 97 76 50 52 84 108 96 69 56 54 52 48 48 48 48 53 60 68 77 84 88 91 92 91 90 90 89 87 85 81 76 71 66 61 58 55 54 53 51 50 49 47 47 47 45 43 43 42 40 39 38 38 39 39 40 41 42 43 44 45 46 48 48 49 52 54 57 58 60 62 65 66 69 73 76 78 80 82 84 86 87 88 89 89 88 88
95 101 87 59 45 65 98 107 86 64 57 57 54 50 49 48 49 54 60 66 73 76 81 86 89 90 91 90 88 89 88 87 84 79 72 65 58 52 49 48 48 48 46 45 44 44 45 46 45 43 39 37 36 34 33 33 34 35 36 37 36 37 38 39 40 41 43 44 46 47 49 52 53 55 56 58 60 61 64 66 69 69 69 68 67 68 68
87 101 95 71 48 51 79 104 100 76 61 59 58 54 53 53 53 53 56 61 66 70 72 74 77 81 84 85 85 86 86 87 88 88 86 82 74 65 59 55 53 54 54 52 48 48 53 58 59 56 51 47 44 41 37 35 35 34 34 35 35 36 39 40 41 42 44 46 48 50 53 56 59 60 59 58 58 57 58 60 62 64 67 69 71 74 76
81 98 98 80 56 45 61 90 104 90 69 60 59 57 55 57 59 59 59 60 64 68 72 75 74 74 76 77 79 81 81 81 83 85 87 89 87 83 78 73 69 68 68 65 59 59 67 77 82 80 75 68 62 57 51 48 44 40 36 35 34 34 34 35 36 37 39 41 44 47 51 55 60 65 68 69 70 70 71 72 74 76 79 82 84 86 86
73 91 98 87 65 47 48 71 97 100 81 64 59 59 57 57 61 63 63 63 65 70 77 83 83 81 79 77 75 75 76 77 77 79 82 85 88 90 90 88 85 83 82 79 74 73 81 90 96 96 93 86 80 75 70 68 65 58 49 44 41 38 36 34 33 33 33 34 35 36 37 40 43 47 50 52 55 57 59 62 64 66 68 69 69 68 66
67 84 94 89 72 53 44 55 82 101 95 75 61 58 58 59 62 65 65 65 65 70 80 89 92 91 89 86 83 82 81 79 77 77 79 82 85 89 91 91 90 89 88 85 82 81 85 90 93 95 94 92 90 87 83 83 84 81 74 70 66 61 56 51 46 43 40 39 38 37 37 36 36 36 37 38 39 40 41 42 43 44 45 44 43 41 40
62 77 88 87 75 58 46 46 64 89 99 89 70 59 58 60 61 64 67 68 67 71 80 91 97 96 94 94 95 96 93 90 87 84 83 83 85 87 90 92 92 92 91 88 85 83 85 87 89 91 92 92 93 92 90 89 91 90 88 88 89 87 84 79 72 65 58 53 48 45 42 40 39 38 38 38 38 37 37 36 37 37 36 35 35 35 35
57 70 81 84 76 61 48 44 54 72 91 96 84 68 61 61 61 62 66 69 71 74 81 90 98 99 96 96 101 105 104 102 100 96 91 89 88 86 87 89 91 92 94 94 93 91 90 89 89 90 91 91 92 93 93 94 94 92 91 92 93 95 97 95 91 86 80 73 68 63 58 54 51 48 46 45 44 43 43 43 43 42 41 40 40 40 41
53 65 75 80 76 63 50 44 49 62 80 95 95 80 67 62 61 61 63 67 71 75 78 84 94 100 100 99 101 104 105 106 108 108 106 103 100 95 91 90 92 94 96 97 97 97 96 94 93 93 92 92 93 94 96 97 97 97 96 96 96 98 101 102 103 102 100 97 94 92 88 84 81 77 74 71 68 65 64 63 62 61 59 59 60 62 65
48 60 70 73 72 64 52 44 46 56 71 88 96 92 78 66 61 60 61 64 68 72 73 75 83 94 101 104 106 107 105 104 107 112 115 116 114 108 103 100 100 102 103 102 102 102 101 99 99 98 98 98 98 99 99 98 99 99 99 98 98 99 99 100 101 102 103 101 99 98 97 96 95 94 93 91 89 87 86 84 82 81 80 80 81 83 84
43 55 65 68 68 64 54 44 44 53 65 77 89 96 91 77 65 61 61 62 64 68 70 71 74 82 93 103 110 113 111 109 110 112 114 116 116 113 108 105 104 105 107 108 109 110 108 106 105 103 102 100 99 98 97 97 97 97 97 96 96 96 95 94 93 92 92 92 90 90 91 90 88 86 86 85 84 82 81 81 80 80 80 80 80 80 80
40 50 60 65 65 62 54 46 44 51 60 67 77 92 98 89 75 65 62 61 63 66 69 72 73 74 78 87 98 105 107 110 114 114 111 112 112 111 108 105 103 103 104 105 105 105 103 101 100 98 96 94 93 91 90 89 88 87 87 86 86 85 84 84 83 81 80 79 79 79 80 80 79 79 78 78 77 76 75 74 74 74 74 75 76 77 78
39 47 55 61 63 59 53 48 44 48 56 62 69 83 95 95 85 74 66 62 62 64 67 71 74 75 75 77 85 93 99 104 109 109 107 106 105 104 104 103 101 100 100 99 99 99 97 95 93 90 88 87 85 83 81 80 78 77 76 75 74 73 72 71 71 70 68 67 65 65 65 64 64 66 68 69 71 72 72 72 73 73 74 75 76 77 78
38 45 51 56 58 56 53 49 44 44 50 57 62 70 81 90 92 86 74 65 62 64 67 69 72 76 79 78 79 86 94 99 101 101 99 98 96 94 94 95 95 95 96 95 94 95 93 91 89 85 82 79 77 74 73 71 69 68 66 64 63 61 60 59 58 57 56 56 55 54 53 52 52 52 54 56 57 59 61 62 64 65 66 66 67 69 69
37 42 47 51 54 54 53 50 44 41 44 50 56 62 69 81 91 92 84 76 70 68 68 69 70 73 76 76 78 83 88 91 93 92 90 89 88 87 86 87 87 89 90 89 88 89 88 87 84 81 77 74 71 68 67 65 63 62 60 59 57 56 54 53 52 51 50 50 50 49 49 49 48 48 49 48 48 49 50 51 52 52 53 54 55 56 57
36 40 43 48 51 51 51 49 44 40 40 43 50 55 59 68 81 90 93 94 90 80 73 70 70 71 71 71 73 77 79 80 81 81 80 80 80 80 81 82 83 84 84 84 84 85 83 81 79 75 72 69 66 64 63 61 60 59 57 56 55 54 54 54 54 53 53 53 53 53 53 53 53 53 53 53 52 52 51 51 50 50 50 51 51 51 52
35 38 41 45 47 48 49 47 43 40 38 39 44 48 51 59 74 90 101 106 106 98 87 78 73 72 72 71 71 72 72 72 73 74 74 74 75 75 77 79 80 80 81 82 82 80 77 74 72 69 67 66 65 64 63 61 60 58 57 57 57 58 59 59 59 58 57 55 53 51 50 50 49 50 51 52 53 54 54 55 56 56 55 56 56 57 57
34 36 39 43 44 45 47 45 42 40 38 38 41 46 49 53 67 85 99 107 109 107 100 90 81 77 76 74 73 73 72 70 71 72 72 73 74 75 75 75 76 77 79 81 81 78 73 70 67 64 64 66 66 66 64 63 61 59 58 58 60 62 63 62 61 58 54 49 44 41 39 37 37 37 38 39 41 43 45 46 48 50 51 53 53 54 55
33 35 38 41 42 43 45 44 41 40 39 38 38 43 47 51 59 75 94 106 110 108 103 97 91 86 81 76 75 76 76 74 74 74 74 74 76 76 76 77 78 79 82 85 85 80 75 72 68 65 66 69 70 69 67 65 64 62 61 61 63 65 65 63 61 56 49 43 39 35 33 32 32 32 32 32 32 33 34 35 36 37 38 39 40 40 41
32 34 37 40 41 42 43 43 41 40 39 37 36 38 45 50 55 65 82 100 111 112 107 99 95 93 88 80 73 73 75 77 78 78 77 79 79 78 78 81 82 84 89 94 93 86 81 78 75 72 72 74 74 72 70 69 67 66 65 65 66 67 67 65 61 55 47 42 38 36 34 32 32 31 31 31 31 31 32 32 32 33 33 34 34 35 35
30 33 36 38 40 41 42 42 41 40 40 38 36 36 41 47 52 58 70 86 102 113 111 102 96 96 96 89 79 72 71 73 75 76 78 81 82 81 81 83 85 87 93 98 95 87 82 82 81 79 78 79 78 77 75 73 71 69 68 68 69 70 69 67 63 55 47 42 39 38 36 35 34 33 33 33 33 33 33 34 34 34 35 35 36 36 36
30 32 34 36 38 40 41 41 41 40 40 39 37 36 38 42 47 53 60 71 87 102 109 106 99 96 96 94 88 80 74 71 69 70 74 77 79 80 81 81 82 87 94 97 93 87 84 86 88 87 84 82 83 83 82 79 75 72 70 70 71 71 71 69 65 57 49 43 41 40 39 38 37 37 37 37 36 36 36 37 37 37 37 37 38 38 39
30 31 33 34 36 38 40 40 40 39 39 39 38 37 36 37 40 46 51 57 68 84 99 106 103 96 91 91 92 90 84 77 70 67 68 69 71 73 73 73 76 86 95 99 97 93 90 89 91 91 89 86 87 89 87 83 79 76 74 73 74 75 74 72 68 61 53 46 43 42 41 41 40 40 40 41 41 40 40 40 40 40 40 40 40 41 41
30 31 32 33 34 35 38 39 39 39 38 38 38 37 36 34 36 40 44 47 51 61 79 97 105 99 92 90 91 92 92 88 81 74 68 66 65 64 63 63 73 87 98 102 102 99 94 91 91 92 92 90 91 91 89 84 81 78 76 74 75 77 77 76 72 67 58 50 44 43 43 42 42 42 42 42 43 43 43 43 43 43 42 42 41 41 40
30 30 31 32 32 33 35 37 38 39 39 38 38 38 36 34 34 36 39 41 41 44 57 78 96 103 99 93 89 88 92 93 90 83 74 67 63 60 57 58 67 81 92 96 98 98 95 91 90 90 91 90 90 89 87 84 82 80 77 75 75 76 78 79 77 72 64 55 48 45 44 45 45 45 44 44 43 43 44 44 44 43 42 41 41 40 40
Wind_Speed
54 51 48 45 43 42 40 37 33 30 25 20 16 12 12 14 12 10 9 11 12 12 16 22 27 33 37 40 44 49 56 62 65 68 70 73 78 82 84 84 83 81 79 77 75 74 71 69 65 62 60 57 54 53 51 51 51 51 50 49 49 49 48 47 46 47 48 48 49 50 50 50 50 49 49 48 46 46 46 46 47 47 46 46 46 47 46
52 50 46 43 41 41 40 37 34 31 26 20 16 12 12 16 16 14 14 15 16 17 21 26 30 34 38 41 45 51 57 62 65 66 69 73 78 81 83 82 80 78 77 75 73 72 69 67 64 62 60 57 54 52 51 50 49 49 49 49 49 48 48 47 48 47 47 46 46 46 45 45 45 46 47 46 45 46 46 45 45 45 44 45 46 45 46
51 49 44 41 39 40 39 36 34 32 26 20 17 14 12 16 19 19 17 18 19 21 25 29 32 36 41 44 48 53 57 61 63 65 68 73 77 80 80 79 77 76 76 74 72 69 67 65 63 61 59 56 53 51 49 48 48 49 49 50 50 49 48 47 47 46 45 44 43 42 42 42 44 45 45 46 46 46 45 45 44 42 42 44 44 44 45
49 47 43 38 37 38 38 35 33 31 27 21 17 16 13 14 21 24 21 20 21 22 25 29 34 38 42 46 51 55 58 60 62 64 68 73 77 78 77 76 75 74 73 72 70 68 67 65 63 61 59 56 53 51 49 48 48 49 49 49 49 49 48 47 46 46 46 46 45 45 45 44 44 45 46 47 47 47 47 45 43 41 43 44 44 45 47
47 45 41 36 35 36 36 34 33 31 27 22 17 17 15 14 21 26 25 23 24 26 28 31 35 41 45 50 53 55 57 58 61 64 68 72 75 76 74 73 72 72 71 70 69 67 66 65 64 62 60 57 54 52 50 49 49 49 48 48 48 48 47 47 46 46 46 46 46 46 45 45 45 46 48 48 48 48 47 44 43 44 45 44 45 47 48
45 43 39 35 33 34 34 33 32 30 27 23 18 17 16 15 20 28 28 26 27 31 34 36 40 44 48 51 54 55 55 57 61 64 68 72 73 73 72 71 71 70 69 68 67 67 66 65 64 62 60 57 55 53 51 50 50 49 48 47 47 47 48 47 47 47 46 46 46 45 45 44 44 45 46 46 46 46 44 44 45 46 46 46 48 50 50
42 41 37 33 31 32 33 31 30 30 28 24 18 16 17 16 20 29 32 29 30 35 40 43 46 48 49 51 52 53 54 56 60 65 68 70 71 71 70 69 69 69 68 67 66 65 65 64 64 62 60 58 56 54 53 51 50 49 48 47 46 47 47 47 48 48 47 47 46 46 45 45 44 44 44 44 44 43 43 43 45 46 46 48 50 51 51
40 39 35 31 29 30 31 30 29 29 28 24 19 16 18 18 20 29 36 35 34 38 43 47 49 50 50 50 51 53 55 57 60 64 67 69 69 68 68 67 67 67 67 66 64 65 65 65 65 63 61 59 57 55 53 52 51 50 48 47 46 46 46 45 46 46 47 47 47 47 46 46 45 45 45 44 43 42 42 42 42 43 44 47 49 50 51
37 36 33 29 26 27 29 28 28 28 27 24 21 17 18 22 23 27 35 40 39 40 42 45 48 50 50 50 50 53 56 59 62 65 66 67 67 66 66 66 67 67 67 66 65 65 65 65 65 63 62 61 60 58 55 53 51 51 49 48 47 47 46 45 45 44 45 47 48 48 48 47 46 45 45 45 44 43 42 42 42 42 43 45 46 48 50
35 34 32 27 24 24 26 25 25 26 26 24 23 19 18 25 29 29 32 38 42 42 41 41 43 46 48 49 49 50 54 58 63 66 67 68 68 67 65 65 65 66 66 66 66 66 66 64 63 62 62 61 60 58 56 54 52 52 51 50 49 48 48 47 46 44 44 46 48 49 50 48 45 44 44 45 45 44 44 43 43 43 43 44 44 47 50
32 32 30 26 21 20 22 22 22 23 25 24 23 22 20 24 32 35 35 37 40 42 42 41 40 41 42 45 47 48 49 53 57 62 64 65 65 65 64 64 64 65 66 66 66 65 65 64 61 60 60 60 59 58 56 54 53 52 51 51 50 50 49 49 47 46 46 46 47 49 49 47 46 46 46 46 45 45 44 44 44 44 43 44 45 47 48
30 29 28 24 19 17 18 19 19 21 24 24 23 23 22 24 30 37 40 40 40 41 41 41 40 39 39 41 43 46 48 50 52 56 59 60 61 61 62 62 63 65 66 66 66 64 63 62 60 58 58 59 59 57 56 54 52 51 50 50 50 50 50 49 49 48 48 47 47 47 45 45 47 49 49 48 47 46 46 45 44 44 44 44 45 46 47
28 27 26 23 18 15 15 17 17 18 21 22 22 24 25 25 29 34 38 39 40 39 39 39 39 39 39 39 40 43 46 50 52 55 57 58 58 59 59 60 61 62 62 63 63 63 62 60 58 58 58 59 59 58 56 54 52 51 50 50 50 50 50 50 50 49 49 48 47 44 43 46 49 50 50 49 49 48 47 46 45 45 45 45 46 47 47
26 26 25 22 17 13 12 14 15 16 18 20 22 23 24 27 29 32 34 35 37 37 36 37 37 37 38 39 40 41 44 49 52 54 56 57 57 57 58 58 58 59 59 59 60 61 60 59 58 57 58 59 59 58 56 55 53 52 51 51 51 51 51 51 51 50 49 48 47 44 44 46 49 50 51 52 51 51 49 48 47 46 46 46 47 48 48
23 24 23 21 17 12 9 10 12 13 15 17 20 21 23 26 28 30 32 32 33 34 34 34 35 35 36 37 38 40 42 46 50 53 54 55 56 56 56 56 56 56 56 56 57 58 59 59 58 57 58 58 58 57 57 55 54 53 53 53 53 53 52 52 53 52 51 50 48 46 43 44 48 52 54 54 54 53 51 50 48 47 47 48 49 49 49
20 21 21 20 17 12 8 7 9 11 13 15 18 20 22 24 26 28 30 31 31 32 33 33 33 33 34 35 36 38 40 43 47 50 52 54 54 54 54 55 55 54 54 55 55 56 56 57 57 58 58 58 58 57 56 56 55 55 55 54 54 54 54 54 54 53 52 51 49 46 44 45 49 53 54 55 55 54 53 51 50 50 50 51 51 51 51
20 20 20 19 17 13 8 5 6 10 12 14 16 18 20 23 25 27 28 29 29 30 30 31 32 32 32 33 34 35 38 41 44 47 50 52 53 53 53 53 53 53 53 54 54 55 55 56 56 57 57 57 57 56 56 56 56 55 55 55 54 54 54 54 54 53 53 52 50 47 46 47 50 52 53 53 53 53 51 50 51 52 53 53 52 53 53
19 18 18 18 16 14 9 4 4 7 11 13 15 16 18 20 23 25 26 28 29 29 29 29 30 31 31 32 32 34 35 38 41 44 46 49 51 52 52 52 52 53 53 53 54 54 55 55 56 56 57 56 56 56 56 56 56 56 55 55 54 55 54 54 54 54 54 53 51 49 48 49 51 53 53 53 52 50 48 49 52 55 56 55 55 55 54
18 16 16 16 15 13 10 5 3 5 9 13 15 17 17 19 21 22 24 26 27 28 29 29 30 31 32 32 32 33 34 36 37 40 42 44 46 48 50 51 52 53 54 54 54 54 55 55 55 56 56 56 56 56 56 56 56 55 55 55 55 55 55 55 55 55 54 54 53 51 49 50 52 54 54 53 52 50 49 52 54 55 57 57 57 57 56
16 15 14 14 13 12 10 7 3 4 7 11 15 17 18 19 20 21 22 24 26 27 28 28 29 30 31 32 33 34 35 35 36 37 39 40 42 45 47 50 52 53 53 54 54 54 54 55 55 55 55 55 56 56 56 56 56 55 56 56 56 55 55 55 55 55 55 55 53 51 50 52 54 55 55 54 53 53 54 55 55 56 58 59 58 58 58
15 14 13 13 12 10 9 7 5 2 6 9 12 16 19 20 20 21 22 23 24 25 27 27 28 29 30 31 33 34 35 36 37 37 38 39 41 43 46 48 49 49 50 51 52 53 53 54 54 54 55 55 55 56 56 57 56 56 57 56 56 56 55 55 56 56 55 54 53 53 54 55 56 56 56 56 55 55 56 57 58 58 59 59 58 57 56
14 13 12 12 11 9 7 6 5 2 4 9 12 14 17 20 21 22 23 24 24 25 26 27 28 29 29 30 31 32 34 35 36 37 38 39 41 42 44 44 45 46 47 48 50 50 51 52 53 53 54 55 55 56 56 56 56 57 56 56 56 56 56 56 56 56 55 55 54 55 55 56 56 56 57 57 56 57 59 59 59 59 58 57 56 55 55
13 12 11 11 10 9 6 4 3 3 1 7 12 14 15 18 21 22 23 25 26 27 27 28 29 29 30 30 30 31 32 33 34 35 36 38 39 40 41 42 42 43 45 46 48 49 50 51 52 52 53 54 55 55 56 56 56 56 56 56 57 57 57 56 56 56 56 55 54 54 55 55 55 56 57 57 58 59 59 58 57 56 56 55 56 56 56
13 11 10 10 10 9 7 4 2 1 0 3 9 14 16 17 19 21 23 24 26 27 28 29 30 30 31 31 31 32 32 32 33 33 35 36 37 38 39 39 40 41 42 43 45 46 47 48 49 50 51 52 53 54 54 54 55 55 55 55 56 56 56 56 55 55 55 54 54 55 55 56 56 56 57 57 57 57 56 56 55 55 56 56 57 58 58
13 11 9 8 9 10 8 5 3 0 2 3 6 11 15 18 19 20 22 23 25 26 27 28 29 30 31 32 32 33 33 33 33 34 35 36 37 37 38 39 39 40 41 42 42 44 45 46 47 48 49 50 50 51 52 52 52 53 53 54 54 55 55 55 55 54 54 55 55 55 55 56 56 56 56 56 56 55 55 55 56 56 57 57 58 59 60
12 11 9 8 8 9 9 7 5 3 2 4 6 9 13 17 20 22 22 23 23 24 25 26 27 28 29 30 30 31 31 32 33 33 34 34 36 37 38 38 39 40 40 41 41 42 43 44 45 46 47 48 48 49 49 50 50 51 52 53 54 54 54 55 55 55 54 55 55 55 55 55 56 56 56 56 56 57 57 57 58 58 58 59 60 61 62
12 12 10 8 7 7 8 8 7 5 4 3 6 8 11 14 18 21 23 24 24 24 25 25 26 26 27 27 28 28 28 29 29 30 31 32 32 33 34 35 35 36 36 37 37 38 38 38 39 40 41 41 42 43 43 44 45 46 47 48 49 50 51 51 51 51 51 51 52 52 52 53 54 55 55 56 56 57 57 57 58 58 58 59 60 61 62
11 12 10 9 7 7 7 8 8 7 6 5 5 6 9 12 15 18 21 23 24 25 26 26 26 26 26 26 26 26 26 26 27 27 28 29 29 30 30 30 31 31 32 33 32 32 32 32 32 33 33 34 34 35 36 37 38 39 39 41 42 43 43 43 43 44 44 45 45 46 47 48 49 50 50 52 52 53 53 54 54 54 55 56 57 58 58
11 12 11 10 8 8 7 8 8 8 8 8 7 7 7 9 12 14 17 20 22 24 26 27 27 27 27 27 27 26 26 26 25 25 26 26 27 27 28 28 28 29 29 30 30 29 28 28 28 29 29 29 30 30 31 32 32 33 34 35 35 35 36 36 36 37 37 37 38 38 39 40 41 42 44 45 46 47 47 48 48 49 50 51 51 52 52
11 11 11 11 9 9 9 8 8 9 10 10 9 9 8 9 10 12 14 16 18 20 23 25 27 28 28 28 27 27 27 26 26 25 25 25 25 25 26 26 27 27 27 28 28 27 26 26 26 27 27 28 28 28 28 28 29 30 30 31 31 31 32 32 33 33 33 33 34 34 35 35 36 37 38 39 40 41 42 43 44 45 45 46 46 47 47
12 11 11 11 11 10 10 10 9 9 10 11 11 10 9 9 11 12 12 13 15 17 19 21 23 25 27 27 28 28 27 27 26 26 25 25 25 24 24 25 25 26 26 27 27 26 25 25 25 25 26 27 27 27 27 27 28 28 29 29 30 30 31 31 32 32 33 34 34 34 35 35 35 36 36 37 38 39 40 41 42 43 44 44 44 45 45
13 12 12 12 12 11 11 11 11 10 10 12 12 12 11 10 11 12 13 14 15 16 17 18 20 21 23 24 25 26 26 26 27 26 26 26 25 25 25 24 24 25 26 26 26 25 25 25 25 25 26 26 26 27 27 27 27 28 28 28 28 29 29 30 30 31 32 33 34 34 35 35 36 36 37 37 38 39 40 41 41 42 43 43 44 44 45
15 13 12 12 12 12 12 12 12 11 10 11 13 13 12 11 11 12 13 14 15 16 17 17 18 18 19 20 21 22 23 24 24 25 25 26 26 26 26 26 25 25 25 25 25 25 25 25 25 25 25 25 26 26 26 26 26 26 26 26 26 26 26 27 28 29 31 32 33 34 34 35 36 36 37 37 38 39 39 40 41 41 42 43 43 43 43
16 14 14 13 13 13 13 13 13 13 12 11 12 13 14 13 13 12 13 14 16 17 17 17 17 17 16 17 17 18 20 21 22 23 24 25 25 26 26 26 26 26 26 25 25 25 25 25 25 25 24 24 25 25 26 26 27 27 26 26 25 25 25 26 27 28 30 31 32 33 34 34 35 36 36 37 38 39 39 40 41 41 42 42 42 42 42
17 15 15 14 14 13 13 14 14 14 14 12 12 12 14 15 15 14 13 14 16 17 17 18 17 17 16 15 15 16 17 19 20 21 22 22 23 24 25 26 26 25 25 25 25 25 25 25 25 25 25 25 25 25 26 26 27 27 27 27 27 27 27 27 27 28 29 29 30 31 32 32 33 34 35 36 37 38 38 39 40 41 41 41 41 41 41
18 17 16 15 15 14 14 14 15 15 15 14 12 12 14 17 17 16 15 15 16 17 18 18 18 17 17 15 15 15 16 18 19 19 20 20 21 22 23 24 24 24 24 25 25 25 26 26 25 25 25 25 25 26 27 27 27 28 28 28 28 28 28 28 28 29 29 30 30 30 31 31 32 33 34 35 36 37 37 39 39 40 40 40 40 40 41
18 17 17 17 16 15 14 15 15 16 17 17 14 12 13 16 18 19 18 17 17 18 18 19 19 19 19 18 17 17 17 17 18 19 19 19 20 21 22 22 23 23 23 23 23 24 25 25 25 25 25 25 26 26 27 27 27 28 28 29 29 29 30 31 31 31 32 33 33 33 33 33 34 35 36 37 37 38 39 40 41 41 41 41 41 42 42
19 18 18 18 16 15 15 15 15 17 18 19 17 14 13 15 18 20 20 20 19 19 19 19 20 20 21 21 20 20 19 19 19 19 19 19 19 20 21 21 22 22 21 21 22 22 23 23 23 24 24 24 25 25 26 26 26 27 28 28 29 30 31 32 33 33 35 35 35 35 36 37 38 38 39 40 41 41 42 42 42 43 43 43 43 43 44
20 19 19 18 18 17 16 15 16 18 19 20 19 17 15 15 17 19 21 22 21 21 21 21 21 21 21 22 22 22 22 22 21 20 20 20 19 19 19 20 20 20 20 20 20 20 20 20 21 21 22 22 23 23 24 24 25 26 27 28 29 30 31 32 33 34 35 36 36 37 38 40 40 40 41 42 42 43 43 43 43 43 43 43 43 44 44
21 20 19 19 19 18 16 16 17 19 20 21 21 20 19 17 17 17 20 22 23 23 22 23 23 23 23 23 24 25 25 24 24 23 22 21 21 21 20 20 20 20 20 20 19 19 19 20 20 20 21 22 22 23 23 24 25 26 27 28 29 30 31 32 33 34 35 36 36 37 38 39 39 40 40 41 42 42 42 42 42 42 43 43 43 43 44
21 21 21 20 20 19 17 17 18 20 20 21 22 22 21 19 17 17 18 20 22 24 25 25 25 25 25 26 26 26 27 26 26 25 25 24 24 23 23 23 22 22 22 21 21 21 21 21 21 22 22 23 23 24 25 26 27 28 29 30 31 31 32 33 34 34 35 36 36 37 37 37 37 37 38 39 40 40 40 41 41 41 42 42 42 42 42
22 22 22 21 21 20 19 19 20 20 21 22 23 23 23 21 20 18 16 16 19 23 27 28 28 29 29 28 28 28 29 28 28 27 27 27 27 26 25 25 25 24 24 24 24 23 23 24 24 24 25 25 26 26 27 27 28 29 29 30 31 32 32 33 34 34 35 35 36 37 37 37 37 38 38 39 39 39 39 40 40 40 40 40 40 41 41
23 23 23 22 22 21 21 21 21 21 21 22 23 24 24 23 21 19 16 14 16 21 26 29 31 32 31 31 31 31 31 31 30 30 29 29 29 28 28 27 26 26 26 26 26 26 26 27 27 27 27 27 27 27 27 27 28 28 29 30 30 30 31 31 32 32 33 33 34 35 35 36 37 38 38 39 40 40 40 41 41 41 41 41 41 41 41
24 24 24 24 23 22 22 22 22 22 22 22 23 23 24 23 23 21 19 17 17 19 22 26 30 32 33 34 34 34 34 33 33 32 32 32 31 31 30 29 29 28 28 28 28 29 29 29 29 28 28 27 27 27 27 27 28 28 28 28 28 28 29 29 29 29 30 30 31 31 32 33 35 36 37 38 39 39 40 40 41 41 41 42 42 42 43
25 25 24 24 24 23 23 23 23 22 22 22 23 23 23 24 24 24 23 22 21 21 22 24 26 30 33 35 36 36 36 36 35 35 35 34 33 33 32 32 31 30 30 30 30 31 31 30 29 28 27 26 27 27 27 27 27 27 27 26 26 26 26 27 27 27 27 28 28 28 28 29 30 32 33 34 35 36 37 38 38 39 39 40 40 41 41
25 25 25 25 25 24 24 24 24 23 23 23 23 23 24 24 25 26 27 26 25 24 24 23 24 27 30 33 35 37 38 38 37 37 37 37 36 36 35 34 33 32 31 32 33 33 32 31 30 28 27 26 26 26 26 26 26 26 25 25 25 25 25 25 25 25 25 25 25 24 24 24 25 26 28 29 30 31 32 33 33 34 35 35 36 36 36
26 26 26 26 26 25 25 25 24 24 24 24 23 24 24 25 26 28 29 30 29 28 26 25 24 25 28 30 32 34 36 38 39 39 39 39 39 39 38 36 35 34 34 35 36 35 33 32 31 29 27 26 26 26 26 25 25 25 25 24 24 24 23 23 24 24 24 24 24 23 22 22 22 23 24 24 25 26 27 28 28 29 30 30 30 31 31
27 26 26 27 27 26 26 26 25 24 24 25 24 24 25 26 27 29 30 32 32 31 30 28 26 26 27 28 29 31 33 35 37 39 39 40 40 40 39 38 38 36 36 37 38 37 34 32 31 29 28 26 26 25 25 25 25 25 24 24 23 23 23 22 22 22 23 23 23 22 21 20 20 20 20 21 21 22 23 23 24 24 25 25 25 26 26
27 27 27 28 27 27 27 26 26 26 26 26 26 26 26 27 28 29 31 33 34 34 33 31 29 28 28 28 28 28 30 32 34 36 37 39 40 40 40 39 38 37 37 38 38 37 34 33 32 31 29 27 26 26 26 25 25 24 24 24 23 23 23 22 21 21 21 21 21 21 20 20 19 18 18 18 19 19 19 20 20 21 21 21 21 21 21
28 28 28 28 28 28 27 27 27 27 27 27 27 27 28 28 29 30 31 33 35 36 35 34 33 31 30 28 28 28 28 30 31 33 34 36 37 39 39 38 36 36 37 38 38 37 36 34 33 32 31 29 28 27 27 26 25 25 24 24 23 23 23 22 21 21 20 20 20 20 20 20 19 18 18 17 17 17 18 18 18 18 18 18 18 19 19
29 29 29 29 29 28 28 28 28 28 28 28 28 29 29 30 30 31 32 33 35 36 36 36 36 34 32 30 29 28 28 28 29 30 32 33 35 36 36 35 34 35 37 38 38 38 37 36 34 33 32 31 30 29 29 28 26 26 25 25 24 24 23 23 22 21 20 20 20 20 19 19 19 19 18 18 18 18 18 17 17 17 18 18 18 18 18
29 30 30 29 29 28 28 28 28 29 29 29 29 30 30 31 31 32 33 33 34 35 36 37 38 37 35 33 32 30 29 28 29 30 30 31 31 32 32 32 33 35 37 38 38 38 38 37 35 34 33 32 32 31 30 29 28 27 27 26 25 25 24 23 22 21 21 21 20 20 19 19 19 20 20 19 19 19 18 18 18 18 18 18 17 17 17
Wind_Direction
356 359 1 359 358 4 7 10 16 19 16 19 24 38 63 65 62 71 88 102 114 131 147 154 159 164 167 169 170 171 171 172 174 176 177 177 178 180 182 183 184 186 188 190 192 194 194 195 196 198 200 202 203 206 208 209 210 210 210 212 215 216 217 218 219 221 223 224 225 226 227 227 229 231 231 232 232 231 229 226 223 222 221 221 221 223 224
357 360 1 0 1 5 8 12 18 21 20 25 31 41 71 81 79 81 92 103 115 132 145 153 160 162 162 163 165 167 168 170 173 175 176 176 178 180 181 183 184 186 188 190 192 194 195 196 197 199 200 202 204 206 209 210 211 212 212 213 215 217 218 219 221 222 225 227 228 230 231 231 232 233 234 234 234 233 233 232 230 230 229 228 228 229 229
358 1 1 2 4 7 9 14 20 23 23 29 39 45 67 90 93 91 96 108 122 138 148 152 156 157 157 159 161 163 166 169 172 174 175 176 178 179 181 183 185 186 188 190 192 193 195 197 199 200 201 202 204 207 209 211 212 213 214 214 216 217 218 219 221 224 226 227 229 232 234 234 234 235 235 235 234 234 233 233 233 233 233 233 234 234 234
359 1 2 2 7 9 11 16 22 25 26 30 45 55 64 92 103 100 103 115 129 140 145 148 151 152 152 154 157 161 166 169 171 173 174 176 177 180 182 183 185 187 189 190 192 193 195 197 199 201 202 203 204 207 209 212 214 215 215 217 218 219 220 220 221 223 224 225 226 227 228 228 230 232 234 234 235 234 233 233 232 232 233 234 234 235 236
360 2 2 3 9 13 12 17 23 28 30 33 47 65 73 95 110 109 112 122 132 137 138 141 144 146 148 152 157 162 166 168 170 172 174 176 178 180 182 184 185 187 189 191 192 194 196 198 200 201 202 203 205 207 209 212 214 215 216 217 219 221 222 223 224 225 226 227 228 229 229 228 228 230 231 232 233 234 234 233 232 232 233 233 234 235 236
1 2 3 3 10 16 15 18 25 30 34 37 48 70 83 101 115 114 114 122 129 132 135 138 142 146 149 154 158 162 165 168 170 171 174 176 178 180 183 184 186 188 190 191 193 195 197 199 201 202 202 203 205 207 210 212 214 215 216 216 218 221 222 223 224 226 227 229 230 231 232 232 232 233 234 234 234 235 234 234 233 233 233 233 234 235 237
2 2 3 4 9 18 19 20 27 34 38 41 50 73 89 104 121 120 117 121 127 132 136 140 144 148 151 155 159 162 165 168 170 171 174 177 179 181 183 185 187 188 190 191 193 195 198 200 202 203 203 204 206 209 211 213 215 215 216 217 218 221 223 223 225 226 227 229 230 231 232 233 233 235 237 237 237 237 236 235 235 236 236 236 237 238 239
4 4 4 5 9 18 22 23 29 36 41 46 54 75 94 106 120 123 121 123 129 134 138 143 147 149 152 157 160 162 165 168 170 172 175 177 179 182 184 185 187 189 190 192 194 196 198 201 202 203 203 204 206 209 212 214 216 216 216 217 219 222 224 225 226 227 229 230 231 232 233 233 233 234 236 237 238 238 238 237 237 238 238 239 241 242 242
4 5 5 6 10 19 24 26 31 38 44 52 61 78 100 109 115 121 124 127 131 136 140 144 148 151 154 158 162 164 166 168 171 173 175 178 180 182 185 187 188 190 191 193 195 197 199 202 203 203 203 205 207 210 212 215 216 217 217 218 220 223 226 227 228 229 230 231 232 232 233 233 234 235 236 237 238 238 238 238 237 237 238 239 241 242 244
4 6 5 7 11 20 26 28 34 43 49 56 66 80 101 113 116 119 123 127 131 136 140 144 148 152 155 158 162 166 168 170 172 174 176 179 181 183 186 188 190 191 193 195 197 200 202 203 204 205 205 207 210 212 214 215 217 218 218 219 220 223 226 228 229 229 231 232 233 233 233 234 234 236 237 238 238 238 238 238 237 237 238 238 240 241 243
4 7 6 7 12 21 28 32 37 48 55 61 72 83 98 114 120 122 124 127 131 136 140 145 149 153 157 159 162 166 169 171 173 175 177 180 182 184 186 189 191 193 195 197 199 202 204 205 206 206 207 210 212 215 217 218 219 220 221 221 222 224 227 228 229 230 231 232 233 234 234 235 235 235 236 237 237 238 238 238 238 238 239 239 240 242 244
4 8 8 7 11 22 31 36 42 52 60 66 76 88 99 112 122 126 129 132 136 139 143 147 151 154 158 161 163 165 167 171 174 176 179 181 184 187 189 190 193 195 197 198 200 202 205 207 207 208 209 211 214 217 219 221 222 224 224 225 226 228 230 232 232 232 232 233 234 235 235 235 235 236 236 236 236 237 237 237 238 239 239 240 241 243 245
3 8 10 8 10 21 34 41 48 55 64 72 81 92 103 113 122 127 131 134 138 141 144 148 152 155 158 161 164 165 167 170 173 177 180 182 185 188 191 193 195 198 199 201 202 203 205 206 208 209 211 213 215 218 221 222 224 226 227 228 229 231 233 234 235 235 235 236 237 237 236 234 235 236 236 237 237 237 237 237 238 238 239 240 241 242 244
3 5 9 11 11 20 36 47 56 62 69 78 85 95 107 117 123 128 132 135 138 142 146 149 153 156 158 161 164 167 169 171 174 178 181 184 187 190 193 195 198 200 201 203 205 206 207 207 209 211 213 215 217 219 222 224 226 228 229 230 231 232 234 235 236 236 237 238 239 239 237 237 236 236 236 236 236 236 237 237 237 238 239 240 241 242 243
6 3 5 11 13 19 39 55 66 74 79 85 92 100 111 119 126 131 135 138 141 144 148 152 154 157 160 162 165 168 170 173 176 179 182 185 188 191 194 197 200 202 203 205 207 208 209 210 211 213 215 217 220 221 223 225 227 229 231 232 233 234 235 236 236 236 236 237 238 239 239 240 240 238 237 237 236 236 236 237 238 239 239 240 241 242 243
7 5 3 9 14 19 37 64 79 88 94 98 101 107 115 122 129 135 139 142 145 148 151 154 157 159 162 164 166 168 171 175 178 181 184 187 190 193 196 199 201 204 206 207 209 210 211 212 214 216 218 220 222 224 225 227 229 231 232 233 234 235 236 236 236 236 237 239 239 240 240 241 241 241 240 239 239 239 239 239 240 240 240 240 241 242 243
3 6 4 5 12 19 32 66 95 106 112 115 114 116 121 127 133 139 144 147 150 153 155 158 160 163 165 167 168 170 173 176 180 183 187 189 192 194 197 200 203 205 207 209 211 212 213 214 216 218 220 222 224 225 227 228 230 231 233 234 235 235 236 236 237 237 238 239 240 240 240 241 242 242 242 242 242 243 243 244 244 243 242 241 241 242 242
359 7 5 3 6 15 28 58 114 126 128 129 129 129 130 133 138 144 149 152 154 158 161 163 164 167 169 170 172 174 176 179 182 186 189 192 194 197 199 202 204 207 208 210 212 214 215 216 218 219 221 223 224 226 227 229 230 231 233 235 236 236 236 236 237 237 238 239 240 241 241 242 243 243 241 241 242 243 244 245 246 245 245 243 242 242 242
353 3 7 4 1 7 22 46 117 153 147 143 142 143 143 143 144 148 153 157 159 163 166 168 170 172 174 175 177 179 181 183 186 188 191 194 196 199 201 204 207 209 210 212 214 215 217 218 220 221 222 224 225 227 228 229 231 232 234 236 237 238 238 237 237 238 239 240 241 242 242 243 244 243 241 241 241 241 242 243 244 246 247 246 244 243 243
348 356 5 8 2 360 12 38 83 171 173 160 155 154 154 155 155 156 159 162 165 168 171 174 176 178 179 180 182 184 186 188 190 192 194 196 199 201 203 206 208 210 212 214 215 217 219 221 222 224 225 226 228 229 231 232 233 234 236 238 239 239 239 239 240 240 241 242 243 244 244 243 242 241 240 240 240 240 240 241 243 245 246 247 246 245 245
344 349 356 6 8 359 360 22 54 151 191 184 171 164 162 164 165 166 167 169 171 173 176 179 181 183 185 186 187 189 191 193 195 197 199 201 203 205 207 209 210 211 213 215 217 219 221 223 224 226 227 229 230 232 233 234 235 236 237 239 239 240 240 241 242 242 243 244 245 244 243 241 240 239 239 239 240 240 241 242 243 243 245 247 248 249 249
339 345 347 354 6 7 356 2 32 77 190 198 192 181 171 170 172 174 175 177 179 181 182 184 186 188 190 191 193 195 196 197 199 200 203 205 208 210 212 214 214 215 216 218 220 221 223 224 226 228 229 230 232 233 235 236 237 238 239 239 240 240 241 241 242 243 244 244 244 244 243 242 240 240 240 239 240 240 241 243 244 246 247 249 250 251 252
331 340 341 341 353 6 5 353 11 41 169 201 202 198 188 179 177 178 180 183 186 189 190 190 191 192 194 196 198 199 201 202 203 204 206 209 211 214 216 218 219 220 221 222 223 224 226 227 228 230 231 232 233 234 235 237 238 238 239 240 241 241 241 242 242 243 243 243 242 242 241 241 240 240 241 242 242 242 243 245 247 249 250 250 251 251 251
322 331 335 332 336 349 0 357 348 35 130 207 207 206 203 196 189 185 184 186 189 192 195 197 198 199 200 201 202 204 205 206 206 207 209 211 213 215 217 219 220 222 223 224 226 227 228 229 230 231 233 234 234 235 236 237 237 238 238 239 240 240 240 240 240 241 241 241 241 240 240 241 241 241 242 244 245 246 247 249 249 249 249 249 250 250 251
313 322 328 325 322 331 342 346 334 279 172 192 207 209 209 208 203 197 193 192 192 193 195 198 201 203 205 206 207 208 209 210 211 212 213 214 216 217 218 219 220 222 223 224 226 227 229 230 231 231 233 233 234 235 236 237 237 237 238 238 239 239 240 240 240 240 240 240 241 241 241 242 242 243 243 244 246 246 247 248 248 249 249 249 250 250 251
305 311 318 316 309 315 326 330 323 304 216 185 192 201 207 210 210 208 204 202 200 199 198 198 200 202 205 207 208 209 210 211 213 214 215 217 218 219 220 221 221 222 223 224 225 226 228 230 231 232 233 234 235 236 237 237 238 238 238 239 239 240 241 241 242 242 241 242 242 243 243 243 244 244 245 245 246 246 247 247 248 249 249 250 251 251 252
296 301 308 307 296 296 309 315 309 296 280 228 196 194 199 205 210 212 211 210 209 208 206 204 203 203 204 205 207 208 209 209 210 211 212 213 215 217 218 219 219 219 219 220 221 222 224 226 228 229 231 231 232 234 234 235 236 237 238 239 239 239 240 241 242 243 243 243 243 243 243 243 244 244 245 245 245 245 246 246 247 247 248 249 249 250 251
289 293 298 299 287 276 286 298 296 285 275 265 238 210 200 199 203 207 211 213 214 214 213 212 211 209 208 208 207 208 208 209 209 209 210 211 211 212 213 214 215 215 216 216 218 219 221 223 225 226 227 227 227 229 229 229 231 232 233 234 235 236 237 238 239 239 240 240 240 240 240 240 240 240 240 240 240 240 241 242 243 244 244 245 246 247 248
279 284 288 291 284 268 264 274 281 275 266 261 256 243 223 208 202 202 205 209 213 215 216 216 216 215 215 214 212 211 210 210 209 210 210 211 211 211 211 211 212 213 215 216 216 217 219 222 224 226 226 226 226 227 227 227 227 227 228 229 230 231 232 232 233 233 234 235 235 235 236 236 236 236 236 236 237 237 238 238 239 241 242 242 243 244 246
270 274 279 283 280 267 256 256 263 264 259 255 254 251 244 230 217 211 208 208 211 214 217 217 218 218 218 218 217 216 215 213 212 211 211 212 212 212 211 209 209 211 213 215 215 213 213 216 219 222 224 224 225 227 228 228 228 228 228 228 228 228 228 228 228 228 228 228 229 228 229 229 230 232 233 234 235 236 236 237 238 239 240 241 242 243 244
265 265 270 276 276 267 254 249 252 256 254 251 249 249 247 241 232 224 220 216 215 216 218 218 218 218 219 219 219 219 219 218 216 214 213 214 213 213 212 211 209 209 211 212 211 208 207 209 212 216 219 220 221 223 224 226 227 228 228 228 229 229 229 229 229 228 227 226 226 226 226 227 228 229 230 232 233 234 235 236 237 238 239 240 241 242 243
263 260 262 269 272 268 257 247 246 250 251 248 246 244 241 238 236 233 230 225 221 218 217 217 217 217 218 219 219 220 221 221 220 218 217 217 216 216 215 215 213 212 212 213 211 207 205 207 210 213 216 218 219 220 221 222 224 226 226 227 228 230 231 231 231 231 230 230 230 230 230 230 231 232 233 234 235 236 237 238 239 240 241 242 243 244 245
262 258 258 261 266 267 261 249 243 245 247 246 244 242 236 231 231 235 236 231 224 219 215 213 214 215 216 216 217 218 220 222 222 221 220 220 219 219 219 219 218 218 218 217 215 212 211 212 214 216 219 220 221 222 221 221 222 223 225 226 228 230 232 233 233 233 233 233 233 234 234 234 235 235 236 237 238 238 239 240 241 242 243 244 245 245 246
261 256 255 257 260 263 262 254 245 242 243 245 243 239 233 227 225 230 234 231 224 217 212 209 209 210 212 212 213 214 216 218 220 221 221 220 221 221 221 222 223 224 225 225 225 223 221 221 221 223 224 225 226 227 227 226 226 226 226 226 227 229 231 233 233 234 234 234 235 236 236 237 238 238 239 240 240 241 241 241 242 243 244 245 246 247 248
259 256 254 255 256 258 259 256 249 242 241 244 244 237 230 227 224 224 227 226 221 214 208 205 204 203 204 206 207 208 209 210 212 214 216 218 219 219 220 220 221 223 226 228 230 231 231 230 229 229 230 230 231 232 233 233 233 233 233 232 232 232 234 236 237 238 239 239 239 240 241 242 243 243 243 243 244 244 244 244 244 245 246 247 248 249 250
256 254 253 253 253 255 256 254 249 243 240 241 242 235 228 227 225 223 222 222 220 216 210 206 202 198 196 197 200 202 201 202 203 206 208 211 214 215 216 216 216 218 221 224 227 229 231 232 232 233 233 233 233 234 234 235 236 237 237 238 238 238 238 240 241 242 243 243 243 244 245 246 246 247 247 247 247 247 247 247 247 248 248 249 250 250 251
253 251 251 251 251 252 253 252 248 244 240 240 240 235 228 227 226 225 223 221 220 219 216 212 206 200 194 192 194 196 197 197 199 200 200 202 206 209 210 210 211 212 215 219 222 225 228 230 231 232 233 234 234 235 236 236 237 238 239 239 240 240 241 241 241 242 243 244 244 244 245 245 245 245 245 245 245 245 245 246 246 247 248 248 248 248 249
252 249 250 250 250 249 250 250 248 243 240 238 237 235 231 228 227 226 225 222 220 219 220 218 214 207 200 195 193 195 196 196 198 198 198 198 200 204 207 208 208 208 210 213 216 220 223 226 228 230 232 233 234 235 236 237 238 239 240 241 241 242 242 243 243 243 243 244 244 244 245 245 245 244 244 244 245 244 244 245 246 246 247 248 249 249 250
253 249 248 249 249 247 246 246 245 242 239 238 236 234 232 230 228 226 226 225 222 219 219 220 218 215 209 202 198 198 199 199 200 200 200 199 200 201 204 207 208 208 208 210 213 216 219 222 224 227 229 232 233 235 236 238 239 240 241 242 243 244 245 245 246 246 246 246 245 244 244 244 245 245 246 247 247 248 248 248 248 249 249 250 250 251 251
252 248 246 246 246 245 244 243 242 240 239 238 236 233 232 233 232 228 226 226 224 221 218 218 219 219 216 211 206 204 203 202 203 203 204 204 205 204 205 207 209 209 210 212 214 217 219 223 225 227 229 232 234 236 238 240 241 243 244 245 246 247 248 249 250 250 251 251 250 250 249 248 248 248 248 248 249 249 250 250 250 250 250 250 250 251 251
250 247 245 244 244 244 242 241 241 239 238 238 237 235 233 233 235 233 229 227 226 223 221 219 218 218 218 217 213 210 208 206 206 206 206 208 210 211 211 212 213 214 215 217 218 220 223 226 229 232 233 235 237 239 241 243 245 247 248 250 251 251 252 252 253 253 254 254 254 255 255 255 255 254 253 252 252 251 251 251 251 251 251 251 252 252 253
249 246 244 243 243 242 241 241 240 239 238 237 237 236 235 233 233 235 234 230 226 225 224 222 220 219 219 219 217 215 214 212 211 210 210 213 215 216 217 219 220 220 221 222 223 225 228 230 233 235 237 239 241 243 245 247 249 250 252 253 254 255 256 256 256 256 256 256 256 256 256 257 257 256 256 256 256 255 255 255 255 254 255 255 255 255 256
247 245 244 243 241 240 240 241 239 238 237 237 237 237 236 234 232 234 235 232 227 226 226 226 224 223 223 221 220 219 219 218 217 217 217 219 221 222 222 224 225 226 227 228 229 230 232 234 236 238 240 242 245 247 249 251 253 254 255 256 257 257 258 257 257 257 257 256 256 255 255 255 255 255 255 255 255 256 256 256 256 257 257 257 257 258 258
246 244 243 242 241 240 240 241 240 237 237 237 237 237 237 235 232 231 231 230 229 228 228 227 227 227 227 226 224 223 224 224 224 224 224 225 227 228 228 229 229 230 231 233 235 236 238 239 240 243 245 248 251 253 255 256 256 257 258 258 259 259 259 258 258 259 259 258 257 256 255 254 254 254 254 254 254 254 254 255 255 256 256 257 257 257 258
244 243 242 241 241 240 240 241 240 238 237 237 237 237 236 234 231 229 229 229 229 229 229 228 227 228 229 229 229 228 228 228 228 229 230 230 232 233 234 234 235 236 237 239 241 243 244 245 247 248 251 254 257 258 259 259 259 259 259 259 259 259 259 259 260 261 261 261 260 258 256 255 253 253 253 253 253 253 253 254 254 255 255 256 256 257 258
243 241 240 241 241 240 240 241 241 239 237 236 235 235 235 233 230 228 228 229 230 230 230 230 228 228 229 231 231 231 232 232 233 233 234 235 236 237 238 239 240 242 243 246 248 249 250 252 254 255 256 258 260 261 261 261 261 261 261 261 260 260 261 262 264 265 265 264 263 262 259 257 255 253 252 252 252 252 252 253 253 254 254 255 256 257 257
242 241 239 239 239 239 240 240 240 239 237 236 234 233 234 233 230 228 227 228 230 231 232 232 231 231 231 232 232 232 233 234 235 236 237 238 239 240 241 242 244 245 247 250 252 253 254 256 258 259 259 261 262 262 261 261 261 261 262 262 262 263 263 264 266 266 265 265 264 263 261 259 256 254 253 252 251 251 251 251 251 252 252 253 254 255 255
242 240 238 238 238 238 238 239 239 238 237 236 234 233 233 232 231 229 228 228 229 231 232 232 233 233 234 235 235 235 235 235 236 237 238 240 241 242 243 244 245 246 248 251 253 254 255 257 259 260 261 261 262 262 261 260 259 260 261 262 262 262 262 263 264 264 263 262 262 261 260 259 257 255 253 252 251 250 250 250 250 250 250 250 251 252 253
242 241 239 237 236 236 237 238 238 238 237 235 233 232 232 232 231 230 229 229 229 230 231 233 233 234 236 237 238 238 237 238 238 239 239 240 242 243 244 245 245 247 249 251 254 255 256 257 259 260 260 260 260 260 259 258 258 258 259 260 260 261 261 261 262 262 261 260 259 258 257 256 254 253 252 251 250 249 248 247 247 247 247 248 249 250 252
242 241 240 238 236 235 236 237 238 238 237 235 234 233 233 232 232 231 230 230 230 230 231 232 233 235 237 238 239 239 239 240 241 241 241 242 243 244 245 245 245 247 249 252 254 256 256 257 258 259 259 259 258 258 257 256 256 256 256 257 259 260 260 261 262 262 261 258 256 256 255 253 251 249 248 248 248 247 247 246 247 248 249 250 251 252 253
243 242 241 239 237 236 236 237 238 239 238 236 235 234 234 234 234 233 232 232 232 231 231 232 233 235 237 239 240 241 241 242 243 243 243 244 244 245 246 246 246 246 248 250 253 255 256 256 257 258 259 258 257 257 257 256 255 255 255 255 256 257 258 259 261 262 260 258 256 254 253 253 251 249 247 246 246 247 248 248 249 249 250 249 249 250 252
244 243 242 241 239 237 236 236 237 239 239 238 236 235 235 235 235 235 235 234 234 233 232 232 233 235 237 239 241 242 243 243 244 245 245 246 247 248 249 249 247 246 246 248 250 253 255 256 256 257 258 258 258 257 257 257 256 256 256 255 255 255 255 256 258 260 259 258 256 254 253 253 252 251 249 248 247 247 247 247 247 247 247 247 248 250 252